Weather History for Houma, LA

Change the Weather History Date:

Saturday, October 27, 2012

  Actual Average Record
Temperature  
Mean Temperature 58 °F -  
Max Temperature 66 °F 78 °F 90 °F (1939)
Min Temperature 49 °F 53 °F 34 °F (1943)
Degree Days  
Heating Degree Days 8    
Growing Degree Days 8 (Base 50)    
Moisture  
Dew Point 50 °F    
Average Humidity 85    
Maximum Humidity 96    
Minimum Humidity 59    
Precipitation  
Precipitation 0.00 in - - ()
Sea Level Pressure  
Sea Level Pressure 30.01 in    
Wind  
Wind Speed 13 mph (NNW)    
Max Wind Speed 18 mph    
Max Gust Speed 22 mph    
Visibility 9 miles    
Events      
Averages and records for this station are not official NWS values.
T = Trace of Precipitation, MM = Missing Value Source: NWS Daily Summary

Daily Weather History Graph

Daily Weather History Graph

Search for Another Location

Airport:

Trip Planner

Search our weather history database for the weather conditions in past years. The results will help you decide how hot, cold, wet, or windy it might be!

Date:

Astronomy

Oct. 27, 2012 Rise Set
Actual Time 7:12 AM CDT 6:19 PM CDT
Civil Twilight 6:48 AM CDT 6:44 PM CDT
Nautical Twilight 6:20 AM CDT 7:12 PM CDT
Astronomical Twilight 5:52 AM CDT 7:40 PM CDT
Moon 5:01 PM CDT (10/27) 5:14 AM CDT (10/27)
Length of Visible Light 11h 56m
Length of Day
11h 07m
Waxing Gibbous, 96% of the Moon is Illuminated
Oct 27
Waxing Gibbous
Oct 29
Full
Nov 6
Last Quarter
Nov 13
New
Nov 20
First Quarter

Hourly Weather History & Observations

Time (CDT) Temp. Dew Point Humidity Pressure Visibility Wind Dir Wind Speed Gust Speed Precip Events Conditions
12:15 AM 58.5 °F 56.3 °F 93% 30.00 in 7.0 mi NNW 12.7 mph 18.4 mph N/A   Scattered Clouds
12:35 AM 57.9 °F 55.8 °F 92% 29.99 in 7.0 mi NNW 12.7 mph - N/A   Mostly Cloudy
12:55 AM 57.4 °F 55.6 °F 94% 29.99 in 10.0 mi NNW 12.7 mph 20.7 mph N/A   Overcast
1:15 AM 57.0 °F 55.0 °F 93% 29.99 in 7.0 mi NNW 12.7 mph - N/A   Overcast
1:35 AM 56.5 °F 54.9 °F 94% 30.00 in 10.0 mi NNW 11.5 mph 21.9 mph N/A   Overcast
1:55 AM 55.9 °F 54.3 °F 94% 29.99 in 7.0 mi NNW 17.3 mph - N/A   Overcast
2:15 AM 55.4 °F 53.8 °F 94% 29.99 in 10.0 mi NNW 16.1 mph 19.6 mph N/A   Overcast
2:35 AM 54.9 °F 53.6 °F 96% 29.99 in 10.0 mi North 13.8 mph 20.7 mph N/A   Overcast
2:55 AM 54.7 °F 53.6 °F 96% 29.99 in 10.0 mi NNW 13.8 mph 20.7 mph N/A   Overcast
3:15 AM 54.5 °F 53.1 °F 95% 29.99 in 10.0 mi NNW 15.0 mph - N/A   Overcast
3:35 AM 54.1 °F 52.5 °F 94% 29.98 in 10.0 mi NNW 16.1 mph - N/A   Overcast
3:55 AM 54.0 °F 52.0 °F 93% 29.98 in 10.0 mi North 16.1 mph 20.7 mph N/A   Overcast
4:15 AM 53.1 °F 50.9 °F 92% 29.99 in 10.0 mi North 12.7 mph - N/A   Overcast
4:35 AM 52.5 °F 50.2 °F 92% 29.99 in 10.0 mi North 12.7 mph 19.6 mph N/A   Overcast
4:55 AM 52.3 °F 50.0 °F 92% 29.99 in 10.0 mi North 13.8 mph - N/A   Overcast
5:15 AM 51.8 °F 49.1 °F 90% 29.99 in 10.0 mi North 15.0 mph - N/A   Mostly Cloudy
5:35 AM 51.1 °F 48.6 °F 91% 30.00 in 10.0 mi North 15.0 mph 21.9 mph N/A   Mostly Cloudy
5:50 AM 51.8 °F 48.2 °F 88% 30.00 in 7.0 mi North 13.8 mph - N/A   Scattered Clouds
5:55 AM 50.9 °F 48.6 °F 92% 30.00 in 10.0 mi North 12.7 mph - N/A   Scattered Clouds
6:50 AM 50.0 °F 48.2 °F 94% 30.01 in 7.0 mi North 17.3 mph - N/A   Overcast
7:50 AM 50.0 °F 48.2 °F 94% 30.02 in 7.0 mi North 17.3 mph - N/A   Overcast
10:50 AM 55.4 °F 48.2 °F 77% 30.03 in 7.0 mi NW 17.3 mph - N/A   Overcast
11:50 AM 59.0 °F 51.8 °F 77% 30.03 in 7.0 mi NW 17.3 mph - N/A   Partly Cloudy
12:50 PM 62.6 °F 51.8 °F 68% 29.99 in 7.0 mi NW 17.3 mph - N/A   Partly Cloudy
1:55 PM 62.6 °F 51.8 °F 68% 29.97 in 7.0 mi NW 13.8 mph - N/A   Clear
2:55 PM 64.4 °F 51.8 °F 64% 29.97 in 7.0 mi NW 13.8 mph - N/A   Clear
3:50 PM 66.2 °F 51.8 °F 60% 29.95 in 7.0 mi NW 13.8 mph - N/A   Clear
4:55 PM 64.4 °F 50.0 °F 59% 29.96 in 7.0 mi NNW 18.4 mph - N/A   Clear
5:49 PM 60.8 °F 50.0 °F 68% 29.97 in 7.0 mi NNW 15.0 mph - N/A   Clear
6:49 PM 57.2 °F 48.2 °F 72% 29.99 in 7.0 mi North 17.3 mph - N/A   Clear
7:15 PM 54.7 °F 49.1 °F 81% 29.99 in 10.0 mi North 8.1 mph - N/A   Clear
7:35 PM 54.5 °F 48.6 °F 80% 30.00 in 10.0 mi North 9.2 mph - N/A   Clear
8:15 PM 52.9 °F 48.2 °F 84% 30.02 in 10.0 mi North 9.2 mph - N/A   Clear
8:35 PM 52.7 °F 47.3 °F 82% 30.02 in 10.0 mi North 8.1 mph - N/A   Clear
8:55 PM 51.8 °F 47.3 °F 85% 30.03 in 10.0 mi North 9.2 mph - N/A   Clear
9:15 PM 51.4 °F 46.9 °F 85% 30.04 in 10.0 mi North 8.1 mph - N/A   Clear
9:35 PM 50.4 °F 46.8 °F 87% 30.05 in 7.0 mi NNW 6.9 mph - N/A   Clear
9:55 PM 49.6 °F 46.6 °F 89% 30.05 in 10.0 mi NNW 5.8 mph - N/A   Clear
10:15 PM 49.1 °F 46.6 °F 91% 30.06 in 7.0 mi NNW 5.8 mph - N/A   Clear
10:35 PM 49.1 °F 46.4 °F 90% 30.06 in 10.0 mi NNW 6.9 mph - N/A   Clear
10:55 PM 49.6 °F 45.5 °F 86% 30.07 in 10.0 mi North 8.1 mph - N/A   Clear
11:15 PM 49.8 °F 44.6 °F 82% 30.07 in 10.0 mi North 9.2 mph - N/A   Clear
11:35 PM 49.5 °F 44.2 °F 82% 30.07 in 10.0 mi North 9.2 mph - N/A   Clear
11:55 PM 49.3 °F 43.9 °F 82% 30.06 in 10.0 mi North 5.8 mph - N/A   Clear